Volver al catálogo

GEESAT 3-02

ActivoComunicacionesLEO
NORAD 61012·PAYLOAD·🇨🇳 China

Lanzado Sep 5, 2024 desde Taiyuan Satellite Launch Center

Loading…

Próximos Pases (próximas 24 horas)

TLE

ActualizadoSource: Space-Track

Época: Sep 14, 2026, 14:26 UTC

1 61012U 24159B   26257.60191532  .00001383  00000-0  18917-3 0  9994
2 61012  49.9955  28.4490 0018417  40.7214 319.5098 14.84502095110071

Sigue GEESAT 3-02 en tiempo real con AllMySat

Download on the App Store